FW2503 Weather Reports


time (UTC)temp
F
wind
direction
speed
knots
gust
knots
rain 1hr
in
rain 24hr
in
rain mn
in
humidity
%
barometer
mb
20260507002035 68 225 0.9 2.6 0.00 0.00 0.00 66 1019.4
20260507001516 68 338 0.9 2.6 0.00 0.00 0.00 65 1019.5
20260507001015 68 270 0.9 2.6 0.00 0.00 0.00 65 1019.5
20260507000535 68 248 0.9 2.6 0.00 0.00 0.00 67 1019.5
20260507000015 69 315 1.7 3.5 0.00 0.00 0.00 64 1019.5
20260506235516 69 293 0.9 4.3 0.00 0.00 0.00 64 1019.7
20260506235015 69 270 0.9 6.1 0.00 0.00 0.00 66 1019.6
20260506234515 69 315 1.7 6.1 0.00 0.00 0.00 64 1019.5
20260506234015 69 293 0.9 2.6 0.00 0.00 0.00 64 1019.6
20260506233520 69 203 0.9 3.5 0.00 0.00 0.00 64 1019.7
20260506233015 70 338 1.7 4.3 0.00 0.00 0.00 63 1019.7
20260506232515 70 270 0.9 2.6 0.00 0.00 0.00 65 1019.7
20260506232015 70 203 0.9 3.5 0.00 0.00 0.00 63 1019.7
20260506231515 70 203 0.9 2.6 0.00 0.00 0.00 63 1019.7
20260506231015 70 203 0.9 2.6 0.00 0.00 0.00 63 1019.8
20260506230515 70 180 0.9 2.6 0.00 0.00 0.00 64 1019.9
20260506230016 70 293 0.9 3.5 0.00 0.00 0.00 64 1019.8
20260506225516 70 203 1.7 2.6 0.00 0.00 0.00 63 1019.9
20260506225016 70 203 0.9 3.5 0.00 0.00 0.00 66 1019.9
20260506224516 70 270 0.9 2.6 0.00 0.00 0.00 65 1020.1
20260506224015 70 338 1.7 3.5 0.00 0.00 0.00 65 1020.2
20260506223515 70 203 0.9 2.6 0.00 0.00 0.00 65 1020.2
20260506223015 70 293 0.9 4.3 0.00 0.00 0.00 65 1020.2
20260506222515 70 338 0.9 3.5 0.00 0.00 0.00 63 1020.4
20260506222017 70 338 1.7 3.5 0.00 0.00 0.00 64 1020.5
20260506221517 70 225 0.9 3.5 0.00 0.01 0.00 65 1020.4
20260506221017 70 315 0.9 2.6 0.00 0.01 0.00 63 1020.6
20260506220517 69 203 0.9 3.5 0.00 0.01 0.00 65 1020.7
20260506220017 69 180 0.9 4.3 0.00 0.01 0.00 68 1020.8
20260506215018 69 203 1.7 5.2 0.00 0.01 0.00 65 1020.9
20260506214518 69 248 0.9 3.5 0.00 0.01 0.00 65 1020.8
20260506214017 69 203 1.7 3.5 0.00 0.01 0.00 66 1020.9
20260506213517 69 203 1.7 4.3 0.00 0.01 0.00 66 1020.8
20260506213017 69 203 1.7 4.3 0.00 0.01 0.00 65 1020.9
20260506212522 69 203 1.7 3.5 0.00 0.01 0.00 66 1020.9
20260506212017 68 225 0.9 5.2 0.00 0.01 0.00 67 1020.9
20260506211517 68 203 2.6 4.3 0.00 0.01 0.00 67 1020.8
20260506211138 68 203 1.7 5.2 0.00 0.01 0.00 66 1021.0
20260506210517 68 225 1.7 3.5 0.00 0.01 0.00 68 1020.9
20260506210017 67 203 1.7 4.3 0.00 0.01 0.00 67 1020.9
20260506205518 67 180 1.7 4.3 0.00 0.01 0.00 68 1021.0
20260506205017 67 203 1.7 3.5 0.00 0.01 0.00 68 1021.0
20260506204557 68 180 1.7 4.3 0.00 0.01 0.00 69 1021.1
20260506204017 68 203 0.9 4.3 0.00 0.01 0.00 67 1021.2
20260506203518 67 225 0.9 1.7 0.00 0.01 0.00 69 1021.3
20260506203017 67 225 0.9 3.5 0.00 0.01 0.00 69 1021.3
20260506202517 66 180 1.7 5.2 0.00 0.01 0.00 70 1021.3
20260506202017 66 203 0.9 2.6 0.00 0.01 0.00 71 1021.3
20260506201517 65 203 0.9 2.6 0.00 0.01 0.00 72 1021.3
20260506201017 65 180 1.7 3.5 0.00 0.01 0.00 71 1021.5
20260506200537 65 203 0.9 3.5 0.00 0.01 0.00 71 1021.6
20260506200017 65 180 1.7 4.3 0.00 0.01 0.00 71 1021.5
20260506195517 64 203 0.9 2.6 0.00 0.01 0.00 72 1021.4
20260506195017 64 203 0.9 3.5 0.00 0.01 0.00 74 1021.5
20260506194517 64 180 0.9 3.5 0.00 0.01 0.00 75 1021.5
20260506194017 64 225 0.9 2.6 0.00 0.01 0.00 74 1021.6
20260506193517 64 203 1.7 4.3 0.00 0.01 0.00 73 1021.5
20260506193018 63 225 1.7 2.6 0.00 0.01 0.00 74 1021.7
20260506192517 63 225 1.7 4.3 0.00 0.01 0.00 73 1021.7
20260506192017 64 180 0.9 2.6 0.00 0.01 0.00 73 1021.8
20260506191517 63 203 0.9 1.7 0.00 0.01 0.00 74 1021.8
20260506191017 63 180 1.7 3.5 0.00 0.01 0.00 74 1021.8
20260506190517 63 203 1.7 3.5 0.00 0.01 0.00 73 1021.9
20260506190018 63 203 1.7 4.3 0.00 0.01 0.00 73 1021.8
20260506185517 62 203 0.9 2.6 0.00 0.01 0.00 75 1021.8
20260506185017 62 203 0.9 2.6 0.00 0.01 0.00 74 1021.8
20260506184517 62 180 0.9 2.6 0.00 0.01 0.00 73 1021.8
20260506184017 62 315 0.9 3.5 0.00 0.01 0.00 74 1021.8
20260506183517 62 203 1.7 4.3 0.00 0.01 0.00 74 1021.9
20260506183019 62 225 1.7 5.2 0.00 0.01 0.00 74 1021.9
20260506182538 61 203 0.9 3.5 0.00 0.01 0.00 76 1021.9
20260506182017 60 180 0.9 1.7 0.00 0.01 0.00 77 1021.9
20260506181537 60 203 0.9 2.6 0.00 0.01 0.00 77 1021.8
20260506181037 60 203 0.9 1.7 0.00 0.01 0.00 78 1021.7
20260506180517 60 203 0.9 2.6 0.00 0.01 0.00 77 1021.8
20260506180017 59 203 0.9 2.6 0.00 0.01 0.00 78 1021.7
20260506175517 59 225 0.9 2.6 0.00 0.01 0.00 78 1021.6
20260506175018 59 338 0.9 2.6 0.00 0.01 0.00 78 1021.7
20260506174517 58 0.0 1.7 0.00 0.01 0.00 81 1021.7
20260506174037 58 180 0.9 2.6 0.00 0.01 0.00 80 1021.6
20260506173517 58 180 0.9 1.7 0.00 0.01 0.00 79 1021.7
20260506173017 58 225 1.7 4.3 0.00 0.01 0.00 79 1021.6
20260506172522 58 158 0.9 4.3 0.00 0.01 0.00 81 1021.8
20260506172017 58 158 0.9 5.2 0.00 0.01 0.00 81 1021.7
20260506171537 58 203 0.9 2.6 0.00 0.01 0.00 80 1021.8
20260506171017 58 23 0.9 1.7 0.00 0.01 0.00 80 1021.8
20260506170618 58 158 0.9 2.6 0.00 0.01 0.00 79 1021.8
20260506170037 58 225 0.9 3.5 0.00 0.01 0.00 80 1021.8
20260506165517 58 225 0.9 4.3 0.00 0.01 0.00 80 1021.7
20260506165017 57 0.0 0.9 0.00 0.01 0.00 82 1021.7
20260506164518 57 135 0.9 2.6 0.00 0.01 0.00 83 1021.7
20260506164017 56 180 0.9 3.5 0.00 0.01 0.00 83 1021.7
20260506163517 56 225 0.9 2.6 0.00 0.01 0.00 82 1021.7
20260506163017 56 203 0.9 1.7 0.00 0.01 0.00 83 1021.8
20260506162516 56 203 0.9 2.6 0.00 0.01 0.00 86 1021.7
20260506162037 55 225 0.9 2.6 0.00 0.01 0.00 85 1021.7
20260506161537 55 293 0.9 1.7 0.00 0.01 0.00 85 1021.7
20260506161037 55 225 0.9 2.6 0.00 0.01 0.00 85 1021.7
20260506160542 55 248 0.9 2.6 0.00 0.01 0.00 87 1021.6
20260506160017 54 248 0.9 2.6 0.00 0.01 0.00 86 1021.6
20260506155516 54 203 0.9 2.6 0.00 0.01 0.00 86 1021.6
20260506155017 54 180 0.9 3.5 0.00 0.01 0.00 87 1021.5
20260506154517 54 180 0.9 2.6 0.00 0.01 0.00 88 1021.6
20260506154017 53 203 0.9 2.6 0.00 0.01 0.00 88 1021.6
20260506153516 53 0.0 0.9 0.00 0.01 0.00 90 1021.5
20260506153017 53 0.0 2.6 0.00 0.01 0.00 90 1021.5
20260506152518 52 158 0.9 3.5 0.00 0.01 0.00 89 1021.4
20260506152017 52 180 0.9 1.7 0.00 0.02 0.00 90 1021.5
20260506151516 52 225 0.9 1.7 0.00 0.02 0.00 91 1021.5
20260506151057 52 0.0 0.9 0.00 0.02 0.00 91 1021.4
20260506150517 51 0.0 0.9 0.00 0.02 0.00 92 1021.3
20260506150037 51 0.0 0.9 0.00 0.02 0.00 92 1021.4
20260506145517 51 0.0 0.9 0.00 0.03 0.00 91 1021.4
20260506145016 51 0.0 0.9 0.00 0.03 0.00 91 1021.4
20260506144517 51 0.0 0.0 0.00 0.03 0.00 91 1021.3
20260506144016 51 0.0 0.9 0.00 0.03 0.00 91 1021.3
20260506143517 51 0.0 0.0 0.00 0.03 0.00 91 1021.3
20260506143016 51 0.0 0.9 0.00 0.03 0.00 92 1021.2
20260506142516 51 0.0 0.0 0.00 0.03 0.00 92 1021.2
20260506142016 51 0.0 0.0 0.00 0.03 0.00 92 1021.1
20260506141537 51 0.0 0.0 0.00 0.03 0.00 91 1021.0
20260506141017 51 0.0 0.0 0.00 0.03 0.00 92 1020.9
20260506140516 51 0.0 0.9 0.00 0.03 0.00 91 1020.9
20260506140016 51 0.0 0.0 0.00 0.03 0.00 92 1020.9
20260506135517 51 0.0 0.0 0.00 0.03 0.00 92 1020.8
20260506135016 51 0.0 0.0 0.00 0.03 0.00 92 1020.7
20260506134516 51 0.0 0.0 0.00 0.03 0.00 92 1020.7
20260506134042 51 0.0 0.9 0.00 0.03 0.00 92 1020.8
20260506133538 51 0.0 0.9 0.00 0.03 0.00 91 1020.7
20260506133036 51 0.0 0.0 0.00 0.03 0.00 91 1020.7
20260506132518 51 0.0 0.0 0.00 0.03 0.00 91 1020.7
20260506132016 51 0.0 0.9 0.00 0.03 0.00 90 1020.6
20260506131516 51 0.0 0.0 0.00 0.03 0.00 90 1020.6
20260506131016 51 0.0 0.0 0.00 0.03 0.00 90 1020.6
20260506130521 51 0.0 0.0 0.00 0.03 0.00 90 1020.6
20260506130016 51 0.0 0.0 0.00 0.03 0.00 90 1020.5
20260506125516 51 0.0 0.0 0.00 0.03 0.00 90 1020.4
20260506125017 51 0.0 0.0 0.00 0.03 0.00 90 1020.5
20260506124517 51 0.0 0.0 0.00 0.03 0.00 90 1020.4
20260506124016 51 0.0 0.0 0.00 0.03 0.00 90 1020.4
20260506123516 51 0.0 0.0 0.00 0.03 0.00 90 1020.4
20260506123016 51 0.0 0.0 0.00 0.03 0.00 90 1020.4
20260506122516 51 0.0 0.9 0.00 0.03 0.00 90 1020.5
20260506122037 51 0.0 0.9 0.00 0.03 0.00 90 1020.3
20260506121516 51 0.0 0.9 0.00 0.03 0.00 90 1020.2
20260506121016 51 0.0 0.9 0.00 0.03 0.00 90 1020.3
20260506120517 51 0.0 0.0 0.00 0.03 0.00 90 1020.3
20260506120017 51 0.0 0.0 0.00 0.03 0.00 90 1020.2
20260506115536 51 0.0 0.9 0.00 0.03 0.00 90 1020.2
20260506115016 51 0.0 0.0 0.00 0.03 0.00 90 1020.2
20260506114516 51 0.0 0.0 0.00 0.03 0.00 90 1020.3
20260506114016 51 0.0 0.9 0.00 0.03 0.00 90 1020.3
20260506113521 51 0.0 0.9 0.00 0.03 0.00 90 1020.1
20260506113016 51 0.0 0.0 0.00 0.03 0.00 90 1020.0
20260506112516 51 0.0 0.9 0.00 0.03 0.00 90 1020.0
20260506112016 51 0.0 0.9 0.00 0.03 0.00 90 1020.0
20260506111516 51 0.0 0.0 0.00 0.03 0.00 90 1019.9
20260506111016 51 0.0 0.0 0.00 0.03 0.00 90 1019.9
20260506110516 51 0.0 0.9 0.00 0.03 0.00 90 1019.9
20260506110016 51 0.0 0.9 0.00 0.03 0.00 90 1019.8
20260506105536 51 0.0 0.9 0.00 0.03 0.00 90 1019.8
20260506105021 51 0.0 0.0 0.00 0.03 0.00 90 1019.9
20260506104516 51 0.0 0.9 0.00 0.03 0.00 90 1019.8
20260506104036 51 0.0 0.0 0.00 0.03 0.00 90 1019.8
20260506103516 51 0.0 0.9 0.00 0.03 0.00 90 1019.7
20260506103016 51 0.0 0.0 0.00 0.03 0.00 90 1019.8
20260506102538 51 0.0 0.0 0.00 0.03 0.00 90 1019.7
20260506102016 51 0.0 0.0 0.00 0.03 0.00 90 1019.7
20260506101517 51 0.0 0.0 0.00 0.03 0.00 90 1019.6
20260506101016 51 0.0 0.9 0.00 0.03 0.00 90 1019.7
20260506100536 51 0.0 0.9 0.00 0.03 0.00 90 1019.7
20260506100036 51 0.0 0.9 0.00 0.03 0.00 90 1019.6
20260506095517 51 0.0 0.9 0.00 0.03 0.00 91 1019.6
20260506095016 51 0.0 0.9 0.00 0.03 0.00 91 1019.6
20260506094516 51 0.0 0.0 0.00 0.03 0.00 91 1019.7
20260506094016 51 0.0 0.0 0.00 0.03 0.00 91 1019.6
20260506093618 51 0.0 0.9 0.00 0.03 0.00 91 1019.6
20260506093016 51 0.0 0.0 0.00 0.03 0.00 91 1019.6
20260506092517 51 0.0 0.0 0.00 0.03 0.00 91 1019.7
20260506092016 51 0.0 0.0 0.00 0.03 0.00 91 1019.6
20260506091516 51 0.0 0.0 0.00 0.04 0.00 90 1019.6
20260506091016 51 0.0 0.0 0.00 0.04 0.00 90 1019.6
20260506090516 51 0.0 0.0 0.00 0.04 0.00 90 1019.6
20260506090016 51 0.0 0.9 0.00 0.04 0.00 90 1019.6
20260506085521 51 0.0 0.9 0.00 0.04 0.00 90 1019.6
20260506085016 51 0.0 0.0 0.00 0.05 0.00 91 1019.6
20260506084516 51 0.0 0.0 0.00 0.05 0.00 91 1019.7
20260506084016 51 0.0 0.0 0.00 0.05 0.00 91 1019.7
20260506083516 51 0.0 0.0 0.00 0.05 0.00 91 1019.7
20260506083016 51 0.0 0.0 0.00 0.05 0.00 91 1019.7
20260506082536 51 0.0 0.9 0.00 0.05 0.00 91 1019.7
20260506082016 51 0.0 0.9 0.00 0.05 0.00 91 1019.8
20260506081516 51 0.0 0.9 0.00 0.06 0.00 91 1019.9
20260506081016 51 0.0 0.9 0.00 0.08 0.00 91 1019.9
20260506080516 51 0.0 0.0 0.00 0.09 0.00 91 1019.8
20260506073516 51 0.0 0.0 0.00 0.11 0.00 91 1019.4
20260506073016 51 0.0 0.9 0.00 0.12 0.00 91 1019.5
20260506072536 51 0.0 0.0 0.00 0.12 0.00 91 1019.4
20260506072017 51 0.0 0.0 0.00 0.13 0.00 90 1019.3
20260506071516 51 0.0 0.9 0.00 0.13 0.00 90 1019.3
20260506071016 51 0.0 0.9 0.00 0.14 0.00 90 1019.2
20260506070516 52 0.0 0.9 0.00 0.15 0.00 91 1019.2
20260506062517 52 0.0 0.0 0.00 0.16 0.15 91 1018.9
20260506062017 52 0.0 2.6 0.00 0.17 0.15 91 1019.0
20260506061516 52 0.0 1.7 0.00 0.17 0.15 91 1018.9
20260506061016 52 0.0 0.9 0.00 0.17 0.15 91 1019.0
20260506060516 52 0.0 0.9 0.00 0.17 0.15 91 1019.0
20260506051016 52 0.0 0.9 0.00 0.19 0.15 89 1018.7
20260506050556 52 0.0 0.9 0.00 0.19 0.15 89 1018.7
20260506045016 52 0.0 0.9 0.00 0.21 0.15 88 1018.5
20260506044515 52 0.0 0.9 0.00 0.21 0.15 88 1018.5
20260506044016 52 0.0 0.9 0.00 0.21 0.15 87 1018.4
20260506043516 52 0.0 0.9 0.00 0.21 0.15 87 1018.2
20260506043017 53 0.0 0.0 0.00 0.22 0.15 87 1018.3
20260506042516 53 0.0 0.0 0.00 0.22 0.15 87 1018.3
20260506042015 53 0.0 0.9 0.00 0.22 0.15 87 1018.2
20260506041537 53 0.0 0.9 0.00 0.22 0.15 86 1018.1
20260506041015 53 0.0 0.9 0.00 0.22 0.15 87 1018.2
20260506040515 53 0.0 0.0 0.00 0.22 0.15 87 1018.1
20260506040015 53 0.0 1.7 0.00 0.22 0.15 87 1018.0
20260506035516 53 0.0 1.7 0.00 0.22 0.15 87 1017.9
20260506035015 53 0.0 1.7 0.00 0.22 0.15 87 1017.9
20260506034516 53 180 0.9 1.7 0.00 0.22 0.15 86 1017.7
20260506034036 53 0.0 1.7 0.00 0.22 0.15 86 1017.7
20260506033520 53 0.0 2.6 0.00 0.22 0.15 85 1017.6
20260506033016 53 180 0.9 1.7 0.00 0.22 0.15 85 1017.5
20260506032516 54 203 0.9 2.6 0.00 0.22 0.15 85 1017.4
20260506032015 54 203 0.9 2.6 0.00 0.22 0.15 86 1017.4
20260506031516 54 180 0.9 2.6 0.00 0.22 0.15 85 1017.3
20260506031016 54 203 0.9 2.6 0.00 0.22 0.15 86 1017.3
20260506030515 54 0.0 0.9 0.00 0.22 0.15 85 1017.2
20260506030016 54 203 0.9 1.7 0.00 0.22 0.15 85 1017.1
20260506025515 54 180 0.9 2.6 0.00 0.22 0.15 85 1017.1
20260506025015 54 225 0.9 1.7 0.00 0.22 0.15 84 1017.2
20260506024516 54 203 0.9 1.7 0.00 0.22 0.15 84 1017.1
20260506024015 54 203 0.9 2.6 0.00 0.22 0.15 83 1017.2
20260506023540 55 203 0.9 2.6 0.00 0.22 0.15 83 1017.1
20260506023035 55 180 0.9 3.5 0.00 0.22 0.15 82 1017.2
20260506022515 55 203 0.9 2.6 0.00 0.22 0.15 83 1017.1
20260506022016 55 180 0.9 2.6 0.00 0.22 0.15 82 1016.9
20260506021535 55 203 1.7 3.5 0.00 0.22 0.15 82 1016.9
20260506021016 55 203 0.9 2.6 0.00 0.22 0.15 81 1016.8
20260506020516 55 180 1.7 4.3 0.00 0.22 0.15 81 1016.7
20260506020015 55 203 1.7 4.3 0.00 0.22 0.15 81 1016.7
20260506015555 56 203 0.9 1.7 0.00 0.22 0.15 82 1016.8
20260506015015 56 180 0.9 2.6 0.00 0.22 0.15 82 1016.7
20260506014515 56 0.0 1.7 0.00 0.22 0.15 83 1016.7
20260506014016 56 203 0.9 3.5 0.00 0.22 0.15 81 1016.6
20260506013515 56 0.0 2.6 0.00 0.22 0.15 82 1016.7
20260506013015 56 225 0.9 1.7 0.00 0.22 0.15 83 1016.7
20260506012515 56 203 0.9 3.5 0.00 0.22 0.15 83 1016.7
20260506012016 56 203 0.9 2.6 0.00 0.22 0.15 82 1016.7
20260506011516 56 203 0.9 3.5 0.00 0.22 0.15 82 1016.7
20260506011035 56 203 0.9 2.6 0.00 0.22 0.15 81 1016.7
20260506010515 56 225 0.9 2.6 0.00 0.22 0.15 82 1016.7
20260506010015 56 203 0.9 3.5 0.00 0.22 0.15 82 1016.6
20260506005516 56 0.0 1.7 0.00 0.22 0.15 82 1016.6
20260506005015 57 180 0.9 2.6 0.00 0.22 0.15 82 1016.6
20260506004516 57 0.0 0.9 0.00 0.22 0.15 83 1016.7
20260506004015 57 0.0 1.7 0.00 0.22 0.15 82 1016.7
20260506003517 57 0.0 1.7 0.00 0.22 0.15 80 1016.6
20260506003018 57 293 0.9 2.6 0.00 0.22 0.15 81 1016.6
20260506002537 57 0.0 0.9 0.00 0.22 0.15 83 1016.6